| time (UTC) | temp C | wind direction | speed KPH | gust KPH | rain 1hr cm | rain 24hr cm | rain mn cm | humidity % | barometer mb |
| 20260503021023 | 12 | 156 | 11.3 | 17.7 | 0.00 | 0.00 | 0.00 | 54 | 1011.8 |
| 20260503020114 | 12 | 172 | 11.3 | 17.7 | 0.00 | 0.00 | 0.00 | 54 | 1012.0 |
| 20260503015111 | 12 | 180 | 12.9 | 17.7 | 0.00 | 0.00 | 0.00 | 53 | 1012.1 |
| 20260503014122 | 12 | 172 | 9.7 | 16.1 | 0.00 | 0.00 | 0.00 | 53 | 1012.0 |
| 20260503013100 | 12 | 166 | 8.0 | 12.9 | 0.00 | 0.00 | 0.00 | 53 | 1012.1 |
| 20260503012049 | 12 | 163 | 8.0 | 12.9 | 0.00 | 0.00 | 0.00 | 53 | 1012.1 |
| 20260503011046 | 12 | 165 | 4.8 | 8.0 | 0.00 | 0.00 | 0.00 | 55 | 1012.1 |
| 20260503010037 | 12 | 191 | 3.2 | 6.4 | 0.00 | 0.00 | 0.00 | 55 | 1012.1 |
| 20260503005033 | 12 | 179 | 1.6 | 6.4 | 0.00 | 0.00 | 0.00 | 55 | 1012.2 |
| 20260503004024 | 12 | 225 | 0.0 | 3.2 | 0.00 | 0.00 | 0.00 | 53 | 1012.3 |
| 20260503003121 | 12 | 205 | 4.8 | 9.7 | 0.00 | 0.00 | 0.00 | 53 | 1012.3 |
| 20260503002112 | 12 | 176 | 3.2 | 8.0 | 0.00 | 0.00 | 0.00 | 52 | 1012.3 |
| 20260503001123 | 13 | 154 | 6.4 | 11.3 | 0.00 | 0.00 | 0.00 | 52 | 1012.3 |
| 20260503000059 | 13 | 166 | 9.7 | 14.5 | 0.00 | 0.00 | 0.00 | 52 | 1012.4 |
| 20260502235050 | 13 | 157 | 11.3 | 14.5 | 0.00 | 0.00 | 0.00 | 51 | 1012.4 |
| 20260502234108 | 13 | 161 | 11.3 | 16.1 | 0.00 | 0.00 | 0.00 | 50 | 1012.4 |
| 20260502233038 | 13 | 166 | 11.3 | 16.1 | 0.00 | 0.00 | 0.00 | 48 | 1012.5 |
| 20260502232035 | 14 | 170 | 11.3 | 17.7 | 0.00 | 0.00 | 0.00 | 47 | 1012.6 |
| 20260502231026 | 15 | 157 | 11.3 | 17.7 | 0.00 | 0.00 | 0.00 | 46 | 1012.6 |
| 20260502230022 | 15 | 176 | 11.3 | 17.7 | 0.00 | 0.00 | 0.00 | 44 | 1012.8 |
| 20260502225133 | 15 | 164 | 9.7 | 16.1 | 0.00 | 0.00 | 0.00 | 43 | 1012.7 |
| 20260502224109 | 15 | 175 | 11.3 | 17.7 | 0.00 | 0.00 | 0.00 | 43 | 1012.8 |
| 20260502223125 | 15 | 169 | 11.3 | 14.5 | 0.00 | 0.00 | 0.00 | 43 | 1012.8 |
| 20260502222057 | 16 | 168 | 9.7 | 12.9 | 0.00 | 0.00 | 0.00 | 42 | 1012.9 |
| 20260502221047 | 16 | 160 | 11.3 | 14.5 | 0.00 | 0.00 | 0.00 | 41 | 1012.9 |
| 20260502220038 | 16 | 176 | 8.0 | 16.1 | 0.00 | 0.00 | 0.00 | 40 | 1012.9 |
| 20260502215056 | 17 | 182 | 6.4 | 12.9 | 0.00 | 0.00 | 0.00 | 39 | 1013.0 |
| 20260502214026 | 17 | 188 | 6.4 | 11.3 | 0.00 | 0.00 | 0.00 | 37 | 1013.0 |
| 20260502213023 | 17 | 174 | 6.4 | 12.9 | 0.00 | 0.00 | 0.00 | 37 | 1013.1 |
| 20260502212115 | 17 | 207 | 6.4 | 12.9 | 0.00 | 0.00 | 0.00 | 37 | 1013.1 |
| 20260502211130 | 17 | 214 | 6.4 | 11.3 | 0.00 | 0.00 | 0.00 | 37 | 1013.2 |
| 20260502205058 | 17 | 200 | 6.4 | 12.9 | 0.00 | 0.00 | 0.00 | 38 | 1013.2 |
| 20260502204130 | 17 | 176 | 8.0 | 12.9 | 0.00 | 0.00 | 0.00 | 37 | 1013.2 |
| 20260502203106 | 18 | 172 | 6.4 | 11.3 | 0.00 | 0.00 | 0.00 | 35 | 1013.3 |
| 20260502202038 | 18 | 217 | 8.0 | 16.1 | 0.00 | 0.00 | 0.00 | 35 | 1013.3 |
| 20260502201033 | 18 | 170 | 6.4 | 12.9 | 0.00 | 0.00 | 0.00 | 35 | 1013.4 |
| 20260502200024 | 18 | 196 | 6.4 | 9.7 | 0.00 | 0.00 | 0.00 | 34 | 1013.4 |
| 20260502195021 | 19 | 200 | 6.4 | 14.5 | 0.00 | 0.00 | 0.00 | 32 | 1013.4 |
| 20260502194112 | 19 | 185 | 6.4 | 11.3 | 0.00 | 0.00 | 0.00 | 32 | 1013.5 |
| 20260502193150 | 20 | 184 | 4.8 | 12.9 | 0.00 | 0.00 | 0.00 | 32 | 1013.5 |
| 20260502192101 | 20 | 210 | 4.8 | 14.5 | 0.00 | 0.00 | 0.00 | 31 | 1013.5 |
| 20260502191056 | 20 | 167 | 6.4 | 19.3 | 0.00 | 0.00 | 0.00 | 30 | 1013.4 |
| 20260502190048 | 20 | 210 | 6.4 | 11.3 | 0.00 | 0.00 | 0.00 | 30 | 1013.5 |
| 20260502185107 | 20 | 200 | 4.8 | 16.1 | 0.00 | 0.00 | 0.00 | 29 | 1013.3 |
| 20260502184040 | 21 | 175 | 4.8 | 9.7 | 0.00 | 0.00 | 0.00 | 25 | 1013.3 |
| 20260502183025 | 21 | 210 | 4.8 | 11.3 | 0.00 | 0.00 | 0.00 | 24 | 1013.3 |
| 20260502182022 | 21 | 219 | 4.8 | 14.5 | 0.00 | 0.00 | 0.00 | 21 | 1013.2 |
| 20260502181113 | 22 | 222 | 4.8 | 14.5 | 0.00 | 0.00 | 0.00 | 19 | 1013.2 |
| 20260502180111 | 23 | 225 | 3.2 | 12.9 | 0.00 | 0.00 | 0.00 | 22 | 1013.2 |
| 20260502164020 | -17 | 0.0 | 0.0 | 0.00 | 0.00 | 0.00 | 1013.5 | ||
| 20260502163112 | -17 | 0.0 | 0.0 | 0.00 | 0.00 | 0.00 | 1013.7 | ||
| 20260502162128 | -17 | 0.0 | 0.0 | 0.00 | 0.00 | 0.00 | 1013.9 | ||
| 20260502161100 | -17 | 0.0 | 0.0 | 0.00 | 0.00 | 0.00 | 1014.0 | ||
| 20260502152026 | -17 | 0.0 | 0.0 | 0.00 | 0.00 | 0.00 | 1014.8 | ||
| 20260502151022 | -17 | 0.0 | 0.0 | 0.00 | 0.00 | 0.00 | 1014.8 | ||
| 20260502150114 | -17 | 0.0 | 0.0 | 0.00 | 0.00 | 0.00 | 1015.0 | ||
| 20260502123036 | -17 | 0.0 | 0.0 | 0.00 | 0.00 | 0.00 | 1016.9 | ||
| 20260502122053 | -17 | 0.0 | 0.0 | 0.00 | 0.00 | 0.00 | 1017.1 | ||
| 20260502121023 | -17 | 0.0 | 0.0 | 0.00 | 0.00 | 0.00 | 1017.3 | ||
| 20260502115131 | -17 | 0.0 | 0.0 | 0.00 | 0.00 | 0.00 | 1017.5 | ||
| 20260502114108 | -17 | 0.0 | 0.0 | 0.00 | 0.00 | 0.00 | 1017.7 | ||
| 20260502113124 | -17 | 0.0 | 0.0 | 0.00 | 0.00 | 0.00 | 1017.8 | ||
| 20260502112056 | -17 | 0.0 | 0.0 | 0.00 | 0.00 | 0.00 | 1018.0 | ||
| 20260502111046 | -17 | 0.0 | 0.0 | 0.00 | 0.00 | 0.00 | 1018.2 | ||
| 20260502110038 | -17 | 0.0 | 0.0 | 0.00 | 0.00 | 0.00 | 1018.1 | ||
| 20260502105035 | -17 | 0.0 | 0.0 | 0.00 | 0.00 | 0.00 | 1018.2 | ||
| 20260502104025 | -17 | 0.0 | 0.0 | 0.00 | 0.00 | 0.00 | 1018.4 | ||
| 20260502103022 | -17 | 0.0 | 0.0 | 0.00 | 0.00 | 0.00 | 1018.5 | ||
| 20260502102134 | -17 | 0.0 | 0.0 | 0.00 | 0.00 | 0.00 | 1018.6 | ||
| 20260502101110 | -17 | 0.0 | 0.0 | 0.00 | 0.00 | 0.00 | 1018.7 | ||
| 20260502091044 | -17 | 0.0 | 0.0 | 0.00 | 0.00 | 0.00 | 1019.3 | ||
| 20260502071131 | -17 | 0.0 | 0.0 | 0.00 | 0.00 | 0.00 | 1020.0 | ||
| 20260502070107 | -17 | 0.0 | 0.0 | 0.00 | 0.00 | 0.00 | 1020.0 | ||
| 20260502065058 | -17 | 0.0 | 0.0 | 0.00 | 0.00 | 0.00 | 1020.1 | ||
| 20260502064050 | -17 | 0.0 | 0.0 | 0.00 | 0.00 | 0.00 | 1020.1 | ||
| 20260502063105 | -17 | 0.0 | 0.0 | 0.00 | 0.00 | 0.00 | 1020.1 | ||
| 20260502062036 | -17 | 0.0 | 0.0 | 0.00 | 0.00 | 0.00 | 1020.1 | ||
| 20260502061053 | -17 | 0.0 | 0.0 | 0.00 | 0.00 | 0.00 | 1020.2 | ||
| 20260502060023 | -17 | 0.0 | 0.0 | 0.00 | 0.00 | 0.00 | 1020.1 | ||
| 20260502055020 | -17 | 0.0 | 0.0 | 0.00 | 0.00 | 0.00 | 1020.1 | ||
| 20260502054132 | -17 | 0.0 | 0.0 | 0.00 | 0.00 | 0.00 | 1020.1 | ||
| 20260502053108 | -17 | 0.0 | 0.0 | 0.00 | 0.00 | 0.00 | 1020.1 | ||
| 20260502052100 | -17 | 0.0 | 0.0 | 0.00 | 0.00 | 0.00 | 1020.0 | ||
| 20260502051055 | -17 | 0.0 | 0.0 | 0.00 | 0.00 | 0.00 | 1020.0 | ||
| 20260502050047 | -17 | 0.0 | 0.0 | 0.00 | 0.00 | 0.00 | 1020.0 | ||
| 20260502045104 | -17 | 0.0 | 0.0 | 0.00 | 0.00 | 0.00 | 1020.1 | ||
| 20260502044055 | -17 | 0.0 | 0.0 | 0.00 | 0.00 | 0.00 | 1020.0 | ||
| 20260502043044 | -17 | 0.0 | 0.0 | 0.00 | 0.00 | 0.00 | 1020.0 | ||
| 20260502041529 | 10 | 225 | 4.8 | 6.4 | 0.00 | 0.00 | 0.00 | 52 | 1020.0 |
| 20260502040540 | 10 | 173 | 4.8 | 9.7 | 0.00 | 0.00 | 0.00 | 53 | 1020.0 |
| 20260502035611 | 10 | 199 | 6.4 | 11.3 | 0.00 | 0.00 | 0.00 | 55 | 1020.0 |
| 20260502034607 | 9 | 184 | 6.4 | 9.7 | 0.00 | 0.00 | 0.00 | 56 | 1020.0 |
| 20260502033600 | 8 | 190 | 9.7 | 12.9 | 0.00 | 0.00 | 0.00 | 58 | 1020.0 |
| 20260502032556 | 9 | 192 | 8.0 | 9.7 | 0.00 | 0.00 | 0.00 | 56 | 1020.1 |
| 20260502031546 | 9 | 189 | 6.4 | 11.3 | 0.00 | 0.00 | 0.00 | 55 | 1020.0 |
| 20260502030536 | 9 | 180 | 4.8 | 8.0 | 0.00 | 0.00 | 0.00 | 52 | 1020.0 |
| 20260502025533 | 10 | 182 | 4.8 | 6.4 | 0.00 | 0.00 | 0.00 | 50 | 1020.1 |
| 20260502024524 | 10 | 186 | 6.4 | 9.7 | 0.00 | 0.00 | 0.00 | 51 | 1020.1 |
| 20260502023520 | 10 | 220 | 3.2 | 6.4 | 0.00 | 0.00 | 0.00 | 52 | 1020.0 |
| 20260502022610 | 11 | 212 | 1.6 | 6.4 | 0.00 | 0.00 | 0.00 | 49 | 1020.0 |